Flag for Peru Weather past 2 weeks in Arequipa, Arequipa, Peru

Now
55 °F

Clear.


Feels Like: 54 °F
Forecast: 49 / 69 °F
Wind: 7 mph from Northeast

Location: Arequipa Airport

Current Time: Sep 21, 2014 at 10:00:38 PM

Latest Report: Sep 21, 2014 at 9:00 PM


Visibility: 10 mi

Pressure: 30.36 "Hg

Humidity: 23%

Dew point: 18 °F

Location of ArequipaLocation

Historic Weather in Arequipa — Graph

°F

Arequipa temperature yesterday

Maximum temperature yesterday: 70 °F (at 1:00 PM)
Minimum temperature yesterday: 48 °F (at 6:00 AM)
Average temperature yesterday: 58 °F

Past Weeks' High & Low Weather Summary

 TemperatureHumidityPressure
High73 °F (Sep 7, 11:00 AM)100% (Sep 20, 3:00 AM)30.39 "Hg (Sep 20, 3:00 AM)
Low46 °F (Sep 12, 6:00 AM)11% (Sep 21, 11:00 AM)30.15 "Hg (Sep 11, 4:00 AM)
Average60 °F29%30.30 "Hg
* Reported Sep 6 9:00 PM — Sep 21 9:00 PM, Arequipa, Weather by CustomWeather, © 2014

Note: Actual official high and low records may vary slightly from our data, if they occured in-between our weather recording intervals... More about our weather records

Advertising

Arequipa weather history for previous 24 hours

 ConditionsComfort  
Time TempWeatherWind HumidityBarometerVisibility
9:00 PM
Sep 21
55 °FClear.7 mph23%30.36 "Hg10 mi
8:00 PM57 °FClear.5 mph21%30.36 "Hg10 mi
7:00 PM59 °FClear.3 mph23%30.36 "Hg10 mi
6:00 PM61 °FClear.8 mph20%30.33 "Hg10 mi
5:00 PM64 °FSunny.12 mph16%30.30 "Hg10 mi
4:00 PM68 °FPassing clouds.12 mph13%30.30 "HgN/A
3:00 PM70 °FPassing clouds.10 mph12%30.27 "HgN/A
2:00 PM70 °FPassing clouds.13 mph12%30.30 "HgN/A
1:00 PM70 °FPassing clouds.12 mph12%30.30 "HgN/A
12:00 PM70 °FPassing clouds.10 mph11%30.33 "HgN/A
11:00 AM68 °FPassing clouds.8 mph11%30.33 "HgN/A
10:00 AM66 °FPassing clouds.6 mph13%30.33 "HgN/A
9:00 AM64 °FSunny.3 mph12%30.33 "Hg10 mi
8:00 AM63 °FSunny.3 mph12%30.33 "Hg10 mi
7:00 AM55 °FSunny.6 mph13%30.30 "Hg10 mi
6:00 AM48 °FSunny.5 mph17%30.30 "Hg10 mi
5:00 AM46 °FClear.5 mph20%30.30 "Hg10 mi
4:00 AM50 °FClear.6 mph17%30.27 "Hg10 mi
3:00 AM48 °FClear.5 mph18%30.27 "Hg10 mi
2:00 AM48 °FClear.5 mph20%30.27 "Hg10 mi
1:00 AM48 °FClear.3 mph21%30.30 "Hg10 mi
12:00 AM50 °FClear.3 mph22%30.30 "Hg10 mi
11:00 PM
Sep 20
54 °FClear.6 mph19%30.33 "Hg10 mi
10:00 PM54 °FPassing clouds.6 mph19%30.33 "HgN/A
Weather by CustomWeather, © 2014

See weather overviewHow to use our weather pages